Back to catalog

STARLINK-6232

AliveCommunicationsVLEO
NORAD 57085·PAYLOAD·🇺🇸 United States

Launched Jun 22, 2023 from Vandenberg Space Force Base

Loading…

Next Passes (next 24 hours)

TLE

FreshSource: CelesTrak SupGP

Epoch: Sep 14, 2026, 22:03 UTC

1 57085C 23088AP  26257.91923611  .00010359  00000+0  37548-3 0  2574
2 57085  43.0029 107.0650 0001338 271.8080 143.3966 15.27549549    19

Track STARLINK-6232 in real time with AllMySat

Download on the App Store